Theta_e
318 319 320 319 319 320 321 323 322 325 325 324 323 325 325 323 324 324 324 323 322 323 321 322 321 318 318 317 317 316 315 315 313 313 311 309 307 304 299 297 294 291 290
313 314 316 316 314 315 318 319 320 322 321 320 321 322 322 321 321 317 321 322 319 317 318 317 317 315 315 314 313 313 312 311 310 308 306 304 298 296 295 292 291 290 289
309 310 311 311 312 313 312 313 314 315 316 316 316 316 317 317 316 316 317 315 315 316 314 314 313 312 312 311 310 306 302 300 298 296 295 295 294 293 292 291 290 289 289
308 310 310 310 311 311 312 312 312 313 313 313 314 314 314 314 313 313 313 313 314 313 312 311 311 308 305 306 305 299 295 294 294 293 293 293 292 291 290 289 289 289 288
307 308 308 308 309 309 310 310 309 310 310 310 311 312 312 311 311 311 311 310 309 309 308 303 299 298 295 294 293 293 293 293 293 292 292 292 291 290 289 289 289 288 288
305 306 305 305 306 306 306 307 307 308 308 308 308 309 308 309 309 309 308 308 308 307 301 297 294 293 292 292 292 292 292 292 292 291 291 290 290 289 289 289 288 287 287
303 302 303 304 304 305 305 305 305 306 306 306 306 305 306 306 305 303 301 300 297 295 294 293 292 292 292 292 292 291 291 291 291 290 290 290 290 289 289 288 288 287 286
300 300 300 300 301 302 303 304 303 301 302 303 302 300 299 297 295 295 294 294 293 292 291 291 291 291 291 291 291 291 290 290 290 290 290 290 289 289 289 288 287 286 286
298 298 297 297 298 298 298 299 299 299 299 298 297 297 297 296 293 292 291 290 291 291 291 291 291 290 290 290 290 290 290 290 290 290 289 289 289 289 288 288 287 286 285
297 296 296 296 296 297 296 296 296 296 297 296 296 294 293 292 291 290 290 290 291 290 290 290 290 290 290 290 290 290 290 289 289 289 289 288 288 288 287 287 286 285 283
296 296 296 296 296 296 296 296 296 295 294 295 294 293 291 290 291 290 291 291 291 290 290 290 290 290 289 289 289 289 289 289 288 288 288 288 288 287 287 286 285 284 283
296 296 296 296 296 296 295 295 294 293 292 291 291 291 290 290 290 290 290 290 290 290 289 289 289 289 289 289 289 289 289 288 288 288 288 287 287 287 286 286 285 284 283
296 296 296 296 295 295 295 295 295 293 292 291 290 289 289 289 290 290 290 290 290 289 289 289 289 289 289 289 289 289 288 288 288 287 287 286 286 286 285 285 284 283 283
296 296 296 295 295 295 295 295 294 293 293 292 291 290 290 290 290 290 289 289 289 289 289 289 288 288 288 288 287 287 287 287 287 286 286 286 286 285 285 284 283 283 283
291 292 293 295 295 295 295 294 294 294 294 294 294 294 294 295 294 294 294 293 293 293 293 292 290 289 288 288 288 287 287 287 287 286 286 285 285 284 284 283 282 282 281
290 290 290 290 290 290 291 292 294 295 294 294 294 294 294 294 293 293 293 292 292 292 292 291 290 290 289 288 288 288 288 286 285 285 284 284 284 284 283 282 281 280 280
290 290 290 290 290 290 290 290 290 290 291 292 291 291 292 293 293 292 292 290 289 289 290 289 287 287 287 287 286 286 285 285 285 284 284 283 283 282 282 281 281 280 280
286 286 287 289 289 289 289 289 289 289 289 290 290 290 289 291 292 291 290 289 289 289 289 288 287 287 286 286 285 285 284 284 284 283 283 282 282 282 281 280 279 278 278
287 286 286 286 286 287 287 287 288 288 288 288 288 289 289 290 290 290 289 289 288 287 287 286 285 285 284 284 284 283 283 283 283 282 282 281 280 279 279 278 278 277 277
287 286 285 285 286 287 287 287 287 287 287 287 287 287 287 288 288 288 287 285 285 285 285 284 284 284 284 283 283 283 282 282 281 280 279 279 279 278 278 277 277 276 275
285 285 285 285 285 285 286 286 286 286 286 286 286 286 286 286 286 285 285 284 284 284 283 283 282 282 282 281 281 281 280 279 279 279 278 278 278 277 276 276 275 274 273
283 283 284 284 284 284 285 285 285 285 285 285 285 284 284 284 283 283 283 282 282 282 282 281 281 280 280 279 279 279 278 278 277 277 277 277 276 276 276 276 275 275 275
283 283 283 283 284 284 284 284 284 284 283 283 283 283 282 282 282 281 281 280 280 280 279 279 279 278 278 278 278 277 277 277 276 276 276 276 275 275 275 275 274 274 274
282 282 282 283 283 283 283 282 282 282 282 281 281 281 280 280 279 279 279 278 278 278 277 277 277 277 276 276 276 276 276 275 275 275 275 274 274 274 273 273 273 272 272
281 281 281 281 281 281 281 280 280 280 279 279 278 278 278 277 277 276 276 276 276 276 275 275 275 275 275 274 274 274 274 273 273 272 272 272 272 272 272 272 272 272 271
279 279 279 279 279 278 278 278 277 277 277 277 276 276 276 276 276 276 275 274 274 274 273 273 273 273 273 273 272 272 272 272 272 271 271 271 271 271 271 271 271 271 271
Wind_Speed
9 8 6 7 7 11 12 15 12 17 13 13 22 24 31 35 29 28 27 23 25 21 24 15 13 10 8 6 6 6 8 11 12 12 13 11 12 11 10 10 11 12 14
12 13 13 10 10 10 13 12 11 12 11 9 14 16 16 15 16 17 21 17 18 16 11 10 8 3 2 2 1 1 6 9 10 10 11 11 9 9 10 11 11 13 15
19 21 23 22 23 23 22 23 22 19 17 16 15 16 13 13 14 11 9 9 11 11 9 7 4 5 5 3 3 2 4 7 8 8 8 9 8 8 8 10 12 13 15
18 18 17 17 18 19 19 16 17 16 15 17 15 14 16 12 9 6 5 4 4 2 4 6 9 7 5 6 6 6 7 7 6 5 5 5 5 7 9 10 12 14 17
11 13 15 15 15 14 14 13 13 12 11 10 9 9 8 10 10 8 6 4 3 3 4 8 9 7 6 6 7 6 6 4 3 3 4 5 6 7 9 11 13 16 17
13 14 14 14 14 15 15 14 12 13 13 12 11 10 10 10 8 8 8 8 7 6 8 8 7 6 5 5 4 3 2 2 2 2 4 5 6 8 11 13 15 17 18
19 18 17 14 13 14 14 14 14 13 14 13 13 12 11 12 11 11 11 10 10 9 8 7 6 6 5 4 3 2 1 1 2 3 5 7 8 10 13 15 16 18 19
20 19 18 15 17 17 15 14 13 14 16 16 16 14 12 14 13 12 11 10 9 8 7 6 5 4 3 2 1 1 2 3 4 6 7 9 11 13 15 16 18 19 20
18 18 16 14 15 15 15 15 13 11 12 12 13 12 10 11 10 9 8 7 7 6 5 4 3 2 0 1 2 3 5 6 7 9 10 12 14 15 16 17 18 20 23
17 16 14 14 13 13 13 13 12 11 11 12 10 10 8 8 8 6 5 5 4 3 2 2 1 2 2 4 5 6 8 9 11 12 14 15 16 18 19 20 20 20 22
15 14 13 12 11 11 11 10 10 9 8 9 8 7 5 4 4 3 2 1 1 2 2 3 4 4 6 7 8 10 11 13 14 15 16 17 18 19 20 21 21 21 22
13 12 11 10 9 9 8 8 7 6 5 5 5 5 3 1 0 1 2 3 4 5 5 5 7 8 8 10 12 13 15 16 16 17 18 19 20 20 22 22 23 22 23
11 10 8 8 7 7 7 6 5 4 4 4 4 3 2 2 2 3 4 5 7 8 8 9 10 12 13 14 16 17 18 18 18 19 20 21 22 23 24 24 24 25 25
7 7 7 6 6 6 5 4 3 2 3 3 3 3 3 4 5 5 6 7 9 10 12 13 14 14 15 17 18 18 19 19 21 22 22 23 25 26 26 27 27 27 29
6 6 7 7 8 8 7 6 6 5 4 4 4 4 5 5 7 7 8 9 12 14 16 17 18 19 19 20 20 19 20 22 24 24 25 26 28 29 30 28 28 28 29
8 8 8 8 9 9 10 10 11 11 10 9 9 8 9 10 11 13 14 14 15 18 19 19 19 18 19 20 21 23 23 22 24 25 27 28 29 30 31 29 28 30 30
10 12 13 14 14 14 13 13 12 12 12 13 14 15 15 15 15 14 12 15 18 20 21 20 19 20 20 21 22 23 24 23 25 26 28 28 29 31 31 31 29 29 29
12 13 14 14 15 15 15 15 14 14 14 14 15 16 16 18 18 15 15 19 21 22 22 20 20 20 21 23 24 25 26 26 27 28 29 29 29 30 30 28 26 26 27
14 13 13 13 14 14 14 15 15 14 14 14 14 16 17 19 19 18 17 20 22 23 20 20 21 22 23 24 25 26 27 27 26 27 27 27 26 26 26 25 24 25 25
16 13 12 12 12 12 12 13 13 13 13 13 14 15 16 16 16 17 18 20 19 18 18 19 20 22 23 24 25 26 26 25 25 25 25 25 24 24 25 25 24 25 25
13 12 11 9 9 9 9 10 10 11 12 12 13 13 15 14 14 15 15 16 17 18 19 19 20 21 22 23 24 24 24 23 22 23 23 22 22 23 23 24 24 25 25
10 8 8 8 8 7 7 8 8 9 9 10 11 12 12 12 13 14 14 15 16 17 17 18 18 19 20 21 21 22 22 21 21 22 22 22 22 22 23 23 24 24 25
7 6 6 6 6 6 6 6 6 7 7 8 9 10 11 11 12 13 13 14 15 16 16 17 17 17 18 19 20 21 21 20 20 20 20 20 20 21 21 22 22 23 23
6 5 5 5 5 5 6 6 6 6 7 7 8 8 9 10 11 11 12 13 13 14 14 15 15 16 16 16 16 17 18 18 18 18 18 18 19 19 19 20 20 21 22
5 4 4 4 5 5 5 5 6 6 7 7 8 8 9 10 10 11 11 12 12 12 13 13 14 14 14 14 14 14 14 14 15 16 16 16 16 16 16 16 17 17 18
6 6 6 6 6 7 7 7 8 8 8 8 9 9 9 9 10 10 10 11 11 12 12 13 13 14 15 15 15 14 14 13 14 14 16 17 16 16 17 18 18 19 19
Wind_Direction
181 179 188 197 208 217 209 206 186 199 213 242 226 229 245 250 257 225 228 235 225 231 220 207 219 219 179 211 207 232 235 238 245 244 231 234 246 251 249 258 264 272 282
127 132 132 128 119 142 162 166 181 203 188 211 239 228 223 213 224 209 199 207 205 187 168 150 136 154 154 198 159 245 270 256 247 246 245 235 233 238 247 261 275 283 287
102 107 110 112 108 104 102 107 109 112 126 124 127 128 132 138 127 121 128 127 145 144 133 128 172 187 205 240 245 208 233 246 240 237 227 217 224 241 264 277 283 288 293
105 103 102 104 105 107 107 107 107 107 113 120 119 119 129 124 110 102 106 88 149 176 154 167 178 162 168 196 210 195 190 193 196 202 221 222 247 259 272 281 293 301 305
98 99 98 98 96 97 101 103 101 110 119 115 112 124 128 121 113 111 112 125 154 197 159 131 131 140 155 162 162 169 167 159 168 195 233 246 261 279 291 306 305 304 304
95 94 91 92 99 102 97 96 103 106 107 110 114 123 133 136 146 153 149 144 143 145 138 143 155 155 163 161 149 146 148 164 200 232 261 282 297 307 308 308 310 313 318
97 94 87 85 94 93 89 86 92 100 103 111 115 116 120 119 116 113 109 115 123 135 142 146 148 158 161 160 166 182 195 240 290 308 301 305 308 311 314 315 317 312 310
94 95 95 97 93 91 95 98 98 100 106 108 110 111 109 111 112 118 124 130 133 140 144 151 156 156 158 165 182 259 308 305 307 309 311 313 314 317 318 316 315 313 313
84 83 83 84 90 95 100 103 104 102 102 106 110 113 117 119 120 122 121 124 130 139 148 157 158 173 327 341 319 316 308 307 308 311 314 316 319 316 318 316 315 317 315
83 82 82 83 84 87 87 90 92 96 99 101 103 106 108 115 115 119 125 133 136 145 165 203 244 285 296 305 307 305 305 309 313 315 316 318 321 320 319 320 319 315 311
77 76 75 76 77 81 86 91 87 84 87 96 100 103 105 112 121 139 132 180 223 239 250 268 274 277 287 296 299 302 306 306 311 314 316 319 319 317 317 317 313 311 305
72 70 71 72 72 73 74 77 80 77 77 77 83 93 89 89 38 281 284 285 288 282 280 279 280 281 287 291 295 297 300 304 308 314 316 317 316 316 315 314 313 310 306
57 54 54 54 52 51 50 54 58 58 55 54 51 40 38 344 327 319 310 301 297 291 291 292 292 291 291 292 293 295 300 306 309 311 311 313 314 315 314 313 312 309 308
26 18 19 21 18 24 26 25 35 48 40 30 0 336 324 306 297 294 292 288 286 287 286 285 284 282 284 285 290 296 302 305 306 305 308 311 312 310 312 310 312 310 307
357 345 332 321 317 317 320 319 320 318 323 322 310 309 312 306 297 294 296 300 298 297 297 292 289 288 287 287 291 297 298 300 299 302 306 309 309 311 309 308 308 306 303
316 312 304 300 298 302 302 297 290 288 286 279 278 269 267 265 274 284 292 301 310 309 303 297 293 293 289 286 287 287 293 294 297 300 302 303 304 304 304 305 307 304 304
296 287 287 288 289 289 288 286 283 279 272 266 263 268 271 268 276 286 291 309 311 307 304 301 295 292 293 293 293 293 294 293 295 297 297 301 304 304 306 308 307 304 304
322 300 285 282 281 281 280 279 279 278 279 280 276 275 283 285 289 294 306 300 301 302 299 295 295 295 294 292 293 295 297 300 302 304 304 305 305 302 302 301 303 302 303
327 320 311 299 287 282 279 277 276 275 276 276 277 280 281 283 285 285 290 290 290 292 290 293 296 298 298 298 299 301 302 303 301 300 300 299 296 296 297 300 303 301 301
318 317 315 310 305 300 295 290 286 284 281 281 281 279 280 283 283 285 287 288 294 297 298 298 296 296 295 296 296 295 296 299 301 300 299 300 301 301 302 303 303 302 304
314 312 311 310 305 303 301 300 299 296 295 296 296 295 293 295 296 297 298 298 299 299 301 302 303 303 303 303 303 304 304 303 300 299 300 302 302 303 304 304 305 305 306
317 317 318 318 317 315 310 306 304 303 302 301 302 306 310 313 310 308 308 308 308 308 308 308 307 306 305 305 305 305 306 306 305 305 305 305 305 304 303 303 304 305 307
336 327 323 326 330 333 334 331 327 324 323 321 319 318 317 317 316 316 315 314 313 312 312 313 313 313 312 311 310 310 312 313 313 311 310 309 309 307 306 307 308 308 310
340 342 340 339 339 343 344 343 340 336 331 327 324 322 321 321 321 322 322 322 322 321 320 320 320 321 322 322 320 320 320 321 320 319 317 318 318 318 316 316 316 316 317
4 4 4 3 4 360 358 354 349 345 343 341 339 338 338 339 339 339 339 339 340 340 338 337 337 336 336 336 335 333 332 335 333 332 331 331 332 331 329 330 330 330 330
20 24 25 28 25 24 19 16 12 9 5 3 2 2 360 357 354 352 351 349 346 344 341 337 333 331 329 329 329 329 328 329 327 329 330 330 329 329 328 328 328 326 327